ONEWEB-0008, 44059

Orbit data source: Space-Track

ONEWEB-0008, 44059 is a payload satellite owned by One Web (UK) in LEO that was launched on Wed, 27 Feb 2019 UTC via a SOYUZ-ST-B launch vehicle from the French Guiana (FRGUI). Payload-class satellites include a variety of spacecraft equipped with specific instruments for various scientific and technological missions. These include communications satellites like Starlink; space stations such as the ISS; scientific satellites like the Hubble; Earth observation satellites from companies like Planet Labs, Umbra, and HawkEye 360; GPS; miniature CubeSats for education and research; and military/defense satellites.

Loading next visibility...
Identifier
44059, 2019-010C
Orbit
LEO
Country
Flag of UKUK
Related business
Manufacturer
Airbus/Toulouse
Mission
Operational Commercial Communications
Bus & Motor
ARROW, Unknown motor
Mass
148 kg wet, ~140 kg dry
Launch date (UTC)
2019-02-27 (7 years ago)
Launch vehicle
SOYUZ-ST-B
Launch site
French Guiana (FRGUI)
Object type
Payload
Rocket body
Debris
Shape & HBR
Trap Box + 2 Pan, 6.7 m
Radar Cross Section
3.464 m², Large (>1 m²)

Expand to show TLE details & history
Last TLE update: 7 hours ago

TLE from 7 hours ago
0 ONEWEB-0008
1 44059U 19010C   26128.25344588  .00000001  00000-0 -29927-4 0  9996
2 44059  87.9095 236.7056 0001869 109.1749 250.9585 13.16593489346473
Epoch: 2026-05-08T06:04Z
TLE epoch observation values (Epoch: 2026-05-08T06:04:57.724Z)
Latitude
0.00007°
Longitude
-80.6228°
Altitude
1,201.119 km
Speed
7.253 km/s
True Right ascension
15h 46m 49s
True Declination
0° 00' 00"
Sunlit
Object was in full shadow at epoch
Visualization orbit readout
Latitude
Unknown
Longitude
Unknown
Altitude
Unknown
Speed
Unknown
Apparent Right ascension
Unknown
Apparent Declination
Unknown
Sunlit
N/A
Visualization observer readout
Local Sidereal Time
21:35:26
Azimuth
Unknown
Elevation
Unknown
Doppler factor
Unknown
Orbital elements
Apogee altitude
1,196.285 km
Perigee altitude
1,193.455 km
Semi-major axis
7,573.007 km
Eccentricity
0.00019
Inclination
87.9095°
RAAN
236.7056°
Arg. of periapsis
109.1749°
True anomaly
250.93826°
Mean anomaly
250.9585°
Eccentric anomaly
250.94838°
Mean motion
3.29337 °/min
Orbital period
109.31 mins
BSTAR
-0.000029927
Loading maneuver chart data...
Computing Atmospheric mass density...
Loading historical data...
Loading historical data...
Loading historical data...
Loading historical data...
Loading historical data...
Loading historical data...
Loading historical data...
Other satellites on launch #10 in the year 2019 (2019-02-27 UTC)

Documentation

Showing up to 5 results
|